sat.trackr.live / text

‹ back to catalog

ASTRA 1KR

NORAD 29055 · 2006-012A

PAYLOAD ACTIVE UNKNOWN

§ Identity

Operator
Country
SES
Launch date
2006-04-20
Launch site
AFETR
Launch vehicle
Mass (kg)
RCS (m²)
14.43

Purposes: comms

External: N2YO · Heavens-Above · Gunter

§ Orbital elements

Epoch: 2026-05-25T03:50:01.744224Z

Period
1,436.07 min
Inclination
0.4163°
Eccentricity
0.0003474
Mean motion
1.00273701 rev/d
Perigee alt
35,771.4 km
Apogee alt
35,800.7 km
Semi-major
42,164.2 km
B*
0.0000e+0
RAAN
83.1112°
Arg perigee
339.1921°
Mean anomaly
256.9543°
Rev number
4,546

§ Raw data

ASTRA 1KR1 29055U 06012A   26145.15974241  .00000117  00000+0  00000+0 0  99982 29055   0.4163  83.1112 0003474 339.1921 256.9543  1.00273701 45463

JSON: /api/v1/satellites/29055 · /tle

For live sub-satellite position, see the globe view (requires WebGL).

§ Visibility from observer

Set your observer location to see the next 7 days of passes ≥ 10°. The values pass through the URL so the page stays shareable.

No JS? Fill the form by hand. The geolocation button needs JavaScript.